Location: Dehesa de la Cepeda
(40.6574°N, 4.3013°W)
Time: 04:09:57
(UTC+00:00)

SL-16 R/B - Pass Details

Date: 05 July 2020
Orbit: 839 x 850 km, 71.0° (Epoch: 11 August)

Event Time Altitude Azimuth Distance (km) Brightness Sun altitude
Exits shadow 23:00:42 34° 97° (E) 1,349 3.0 -23.9°
Drops below altitude 10° 23:05:28 10° 41° (NE) 2,475 5.0 -24.2°
Sets 23:08:06 0° 33° (NNE) 3,416 5.9 -24.4°
